This demonstration page uses our WeatherBlox Daily Observations layout. Learn more.

Left ArrowRight Arrow

39.01783, -85.05884

Hourly Observations for September 29, 2018

Temp ( °F °C ) Dew Point ( °F °C ) Humidity (%) Winds ( mph kmh ) Pressure ( in mb ) Visibility ( mi km ) Precip ( " mm )
12:52 am 00:52 Clear 58 14.4 55 12.8 90 90 NNW 12 19 30.20 1023 10 16 N/A
1:52 am 01:52 Clear 57 13.9 53 11.7 87 87 N 10 17 30.21 1023 10 16 N/A
2:52 am 02:52 Clear 57 13.9 52 11.1 83 83 NE 7 11 30.22 1023 10 16 N/A
3:52 am 03:52 Clear 55 12.8 51 10.6 87 87 NNE 5 7 30.22 1023 10 16 N/A
4:52 am 04:52 Clear 54 12.2 52 11.1 93 93 N 7 11 30.23 1024 10 16 N/A
5:52 am 05:52 Clear 54 12.2 51 10.6 90 90 N 10 17 30.25 1024 10 16 N/A
6:52 am 06:52 Clear 54 12.2 49 9.4 83 83 NNE 10 17 30.27 1025 10 16 N/A
7:52 am 07:52 Sunny 53 11.7 49 9.4 86 86 NNE 9 15 30.28 1025 10 16 N/A
8:52 am 08:52 Sunny 55 12.8 48 8.9 77 77 NE 9 15 30.29 1026 10 16 N/A
9:52 am 09:52 Sunny 57 13.9 48 8.9 72 72 NE 9 15 30.32 1027 10 16 N/A
10:52 am 10:52 Sunny 60 15.6 49 9.4 67 67 ENE 8 13 30.32 1027 10 16 N/A
11:52 am 11:52 Sunny 64 17.8 50 10 60 60 NE 5 7 30.30 1026 10 16 N/A
12:52 pm 12:52 Sunny 66 18.9 50 10 56 56 NE 7 11 30.29 1026 10 16 N/A
1:52 pm 13:52 Sunny 68 20 52 11.1 57 57 N 5 7 30.29 1026 10 16 N/A
2:52 pm 14:52 Mostly Sunny 69 20.6 51 10.6 53 53 ESE 3 6 30.26 1025 10 16 N/A
3:52 pm 15:52 Mostly Sunny 71 21.7 51 10.6 49 49 N 6 9 30.24 1024 10 16 N/A
4:52 pm 16:52 Mostly Sunny 71 21.7 51 10.6 49 49 ENE 3 6 30.24 1024 10 16 N/A
5:52 pm 17:52 Mostly Sunny 71 21.7 51 10.6 49 49 N 6 9 30.24 1024 10 16 N/A
6:52 pm 18:52 Mostly Sunny 69 20.6 51 10.6 53 53 E 3 6 30.24 1024 10 16 N/A
7:52 pm 19:52 Mostly Clear 66 18.9 52 11.1 61 61 E 3 6 30.25 1024 10 16 N/A
8:52 pm 20:52 Mostly Clear 62 16.7 54 12.2 75 75 E 3 6 30.25 1024 10 16 N/A
9:52 pm 21:52 Mostly Clear 63 17.2 53 11.7 70 70 ENE 3 6 30.25 1024 10 16 N/A
10:52 pm 22:52 Clear 60 15.6 53 11.7 78 78 ESE 5 7 30.25 1024 10 16 N/A
11:52 pm 23:52 Clear 60 15.6 53 11.7 78 78 SE 8 13 30.23 1024 10 16 N/A

Powered by AerisWeather